Location: Newsoms
(36.6240°N, 77.1250°W)
Time: 21:03:27
(UTC-04:00)

Daily predictions for brighter satellites

Satellite Brightness Start Highest point End
(mag) Time Altitude Azimuth Time Altitude Azimuth Time Altitude Azimuth
BREEZE-M DEB (TANK) 3.5 20:08:42 10° WNW 20:15:16 73° NNE 20:18:42 10° ESE
Cosmos 1892 3.8 20:12:12 10° NNE 20:15:30 26° ENE 20:18:46 10° SE
YAOGAN 6 3.9 20:15:14 10° SE 20:18:08 23° ENE 20:21:04 10° NNE
EO 1 Del DPAF 4.4 20:17:56 10° N 20:21:38 49° WNW 20:25:19 10° SSW
Nadezhda 3 Rocket 4.4 20:16:36 10° N 20:22:40 47° E 20:28:44 10° SSE
Cosmos 2278 Rocket 3.7 20:19:44 10° N 20:23:50 20° NE 20:27:54 10° ESE
Cosmos 1633 Rocket 3.7 20:23:46 10° NNE 20:27:48 36° ENE 20:31:47 10° SE
Sakura Rocket 4.3 20:26:24 10° SW 20:30:39 27° S 20:33:41 12° ESE
Cosmos 2221 4.3 20:28:42 10° SSW 20:32:38 36° W 20:36:36 10° N
Cosmos 1340 2.9 20:34:03 10° SSW 20:37:50 73° W 20:41:38 10° N
BREEZE-M DEB (TANK) 4.4 20:34:35 10° NW 20:38:29 23° NNE 20:40:37 10° ENE
Cosmos 2228 Rocket 3.9 20:37:28 10° SSE 20:41:17 30° E 20:45:08 10° NNE
Thor Agena Rocket 3.5 20:37:58 10° NNE 20:43:15 80° ESE 20:48:32 10° S
In-Cosmos 22 Rocket 4.4 20:38:31 10° NNW 20:43:56 71° W 20:49:13 10° S
SL-24 R/B - RUBIN 2 3.5 20:39:36 10° NNW 20:43:58 86° ENE 20:48:00 12° SSE
ATLAS 2AS CENTAUR R/B 3.3 20:38:56 10° NNW 20:46:35 51° NE 20:52:15 16° ESE
ASTRO E2 4.2 20:47:15 10° SSW 20:50:08 19° SSE 20:51:07 18° SE
OAO 2 Rocket 3.6 20:46:04 10° W 20:51:12 58° SSW 20:54:42 20° ESE
NOSS 3 (A) 4.2 20:50:03 10° SSW 20:52:45 65° ESE 20:55:38 10° NE
Cosmos 1805 Rocket 4.4 20:48:34 10° NNW 20:52:47 50° W 20:56:57 10° SSW
Spot 2 Rocket 3.9 20:49:02 14° SE 20:53:09 45° ENE 20:58:00 10° N
Cosmos 1825 3.5 20:51:16 10° NNE 20:54:12 21° ENE 20:54:53 20° E
Cosmos 1328 Rocket 3.5 20:50:55 10° S 20:55:17 69° E 20:59:42 10° NNE
Cosmos 2154 Rocket 4.2 20:50:30 10° SSW 20:56:45 74° W 21:03:00 10° N
ATLAS CENTAUR R/B 1.4 20:54:09 10° SW 20:57:44 68° WNW 21:01:30 10° NNE
SL-8 R/B 3.7 20:53:31 10° SW 20:58:17 86° NW 21:03:07 10° NE
SL-16 R/B 3.3 21:01:32 21° ESE 21:02:37 23° E 21:06:54 10° NE
Timation 1 Rocket 4.5 20:59:13 10° NNW 21:05:11 78° WSW 21:10:41 12° SSE
Resurs 01 Rocket 1.5 21:02:02 13° SSE 21:05:57 81° ENE 21:10:24 10° N
ARGOS 4.2 21:06:46 22° E 21:08:36 26° ENE 21:12:59 10° NNE
Cosmos 1470 Rocket 3.6 21:06:37 10° N 21:10:58 58° E 21:13:19 26° SSE
Haruka 4.2 21:07:21 10° W 21:13:54 28° SSW 21:15:52 19° SSE
Meteor 2-3 Rocket 3.7 21:09:18 10° N 21:14:56 89° W 21:20:11 12° S
Cosmos 1939 Rocket 3.3 21:13:06 12° S 21:16:32 59° W 21:20:24 10° NNW
Cosmos 2341 Rocket 4.3 21:13:45 10° SSW 21:20:06 73° W 21:26:27 10° N
Cosmos 1869 3.5 21:19:48 39° SE 21:20:43 48° E 21:24:36 10° NNE
NOSS 0 Rocket 4.1 21:15:51 10° SSW 21:21:59 75° WNW 21:28:13 10° NNE
Meteor 2-10 Rocket 4.0 21:20:50 26° SSE 21:23:37 45° E 21:29:06 10° NNE
Cosmos 2218 Rocket 4.0 21:18:37 10° S 21:24:52 66° E 21:31:12 10° NNE
Cosmos 1980 3.9 21:23:02 10° SSW 21:28:42 73° WNW 21:34:24 10° NNE
USA 267 3.7 21:24:33 10° ENE 21:30:24 35° SE 21:36:14 10° S
ERS-1 Rocket 4.0 21:30:08 27° ENE 21:30:36 28° ENE 21:34:49 10° N
Cosmos 407 Rocket 4.3 21:29:14 10° N 21:33:46 31° ENE 21:34:17 30° ENE
Cosmos 2366 rocket 3.9 21:31:03 14° S 21:36:22 74° E 21:42:38 10° N
H-2A R/B 2.6 21:36:33 35° E 21:37:01 35° ENE 21:41:32 10° N
Cosmos 1408 2.5 21:34:03 10° N 21:37:44 85° W 21:38:11 67° S
Cosmos 1933 Rocket 3.5 21:35:11 10° N 21:39:34 79° W 21:41:04 41° S
Cosmos 2333 Rocket 3.8 21:34:33 10° SW 21:39:43 36° WNW 21:44:54 10° N
Cosmos 1151 Rocket 3.7 21:36:23 10° SSW 21:40:32 52° W 21:44:43 10° N
Cosmos 1371 Rocket 3.9 21:35:22 10° SSW 21:40:40 88° ESE 21:46:03 10° NNE
SL-8 Rocket 4.2 21:39:13 10° SSW 21:45:30 70° W 21:51:47 10° N
MetOp-A 4.1 21:51:20 55° SE 21:52:22 68° ENE 21:57:42 10° N
Cosmos 1339 Rocket 4.3 21:49:47 10° N 21:55:54 78° E 21:57:44 48° SSE
Cosmos 2237 Rocket 3.2 21:50:48 10° SW 21:56:09 45° WNW 22:01:34 10° N
Cosmos 1869 Rocket 4.3 21:57:44 10° N 22:00:54 40° NE 22:00:54 40° NE
Cosmos 2056 Rocket 3.7 21:57:10 12° SSW 22:02:10 75° WNW 22:07:35 10° NNE
Genesis I 4.5 22:01:13 10° NW 22:04:56 35° WSW 22:05:02 35° WSW
Helios 1A 4.3 22:08:42 31° NNE 22:08:42 31° NNE 22:11:15 10° N
Terra 3.9 22:09:24 16° NE 22:09:24 16° NE 22:11:09 10° NNE
Cosmos 2278 Rocket 2.7 22:02:43 10° NNW 22:08:15 55° WSW 22:09:51 42° SSW
Cosmos 2098 Rocket 3.8 22:07:13 31° SW 22:09:06 51° W 22:13:00 10° N
Cosmos 1190 Rocket 4.0 22:19:57 10° NNW 22:24:56 77° NW 22:24:56 77° NW
SPOT 5 3.8 22:28:34 38° NNE 22:28:34 38° NNE 22:31:26 10° N
ATLAS 2A CENTAUR R/B 3.9 22:11:43 10° WSW 22:27:22 43° S 22:27:52 42° S
Cosmos 1140 Rocket 4.3 22:23:17 10° N 22:27:07 41° NNE 22:27:07 41° NNE
Lacrosse 5 4.3 22:27:11 10° N 22:29:22 13° NNE 22:30:32 12° NE
Cosmos 1825 4.5 22:26:50 10° NW 22:29:36 19° W 22:29:46 19° W
ATLAS 2AS CENTAUR R/B 4.0 22:30:34 10° NW 22:37:14 33° WSW 22:39:44 26° SW
GEOS 3 Rocket 4.1 22:36:40 10° NNE 22:41:54 57° NW 22:43:43 38° WSW
SL-16 R/B 3.2 22:43:11 23° WSW 22:46:22 44° WNW 22:51:46 10° N
ARGOS 4.3 22:48:17 35° WSW 22:48:39 35° W 22:53:32 10° NNW
Cosmos 2344 3.5 22:42:47 10° SW 22:50:27 81° WNW 22:58:37 10° NNE
Cosmos 1943 Rocket 4.2 22:52:06 10° N 22:54:37 18° NE 22:54:37 18° NE
Cosmos 1821 Rocket 4.1 22:57:37 72° NW 22:57:37 72° NW 23:03:31 10° N
NOSS 3-4 (A) 4.0 23:01:01 10° NW 23:07:53 64° WSW 23:07:53 64° WSW
NOSS 3-4 (C) 4.0 23:01:07 10° NW 23:07:59 65° WSW 23:07:59 65° WSW
USA 267 3.6 23:07:08 10° NE 23:13:33 60° NW 23:19:56 10° WSW
H-2A R/B 3.9 23:17:10 22° W 23:17:10 22° W 23:20:24 10° NW
Cosmos 2369 Rocket 3.7 23:22:10 10° N 23:25:18 31° N 23:25:18 31° N
CZ-4C R/B 3.9 23:44:41 29° N 23:44:41 29° N 23:48:05 10° NNE
USA 234 4.1 23:45:38 41° NNE 23:45:38 41° NNE 23:51:09 10° NNW
Terra 4.2 23:48:17 19° NW 23:48:17 19° NW 23:49:49 10° NNW
